EW5963 Weather Reports


Display with metric or nautical units.
time (UTC)temp
F
wind
direction
speed
MPH
gust
MPH
rain 1hr
in
rain 24hr
in
rain mn
in
humidity
%
barometer
mb
20260510104803 73 159 2.0 4.0 0.00 0.01 0.00 85 1010.8
20260510104303 73 110 2.0 4.0 0.00 0.02 0.00 85 1010.8
20260510103803 73 130 2.0 4.0 0.00 0.02 0.00 85 1010.8
20260510103303 73 117 3.0 5.0 0.00 0.03 0.00 85 1010.8
20260510102803 73 110 3.0 5.0 0.00 0.04 0.00 85 1010.8
20260510102305 73 133 2.0 7.0 0.00 0.05 0.00 84 1010.8
20260510101804 73 135 4.0 7.0 0.00 0.06 0.00 84 1010.8
20260510101304 72 124 4.0 7.0 0.00 0.07 0.00 84 1010.8
20260510100802 72 130 3.0 6.0 0.00 0.07 0.00 84 1010.9
20260510100301 72 0 4.0 7.0 0.00 0.08 0.00 84 1010.8
20260510095801 72 144 4.0 7.0 0.00 0.10 0.00 84 1010.9
20260510094801 71 118 5.0 5.0 0.00 0.13 0.00 84 1011.1
20260510094301 71 106 3.0 5.0 0.00 0.14 0.00 84 1011.1
20260510093300 71 0 3.0 5.0 0.00 0.16 0.00 83 1011.0
20260510092801 71 85 3.0 4.0 0.00 0.18 0.00 83 1010.9
20260510091801 70 118 2.0 4.0 0.00 0.18 0.00 83 1010.9
20260510091300 70 110 3.0 5.0 0.00 0.18 0.00 83 1010.9
20260510090800 70 78 2.0 5.0 0.00 0.18 0.00 83 1010.8
20260510090300 70 103 3.0 4.0 0.00 0.18 0.00 82 1010.7
20260510085759 70 116 3.0 4.0 0.00 0.18 0.00 82 1010.6
20260510085300 70 110 1.0 4.0 0.00 0.18 0.00 82 1010.7
20260510084800 70 121 3.0 4.0 0.00 0.18 0.00 82 1010.7
20260510084300 70 80 3.0 4.0 0.00 0.18 0.00 82 1010.8
20260510083800 69 109 3.0 3.0 0.00 0.18 0.00 82 1010.7
20260510083300 69 0 1.0 3.0 0.00 0.18 0.00 82 1010.6
20260510082759 69 107 0.0 3.0 0.00 0.18 0.00 82 1010.7
20260510082257 69 110 1.0 3.0 0.00 0.18 0.00 81 1010.6
20260510081757 69 134 0.0 4.0 0.00 0.18 0.00 81 1010.7
20260510081259 69 114 1.0 5.0 0.00 0.18 0.00 81 1010.7
20260510080759 69 72 3.0 5.0 0.00 0.18 0.00 81 1010.9
20260510080259 69 63 3.0 4.0 0.00 0.18 0.00 81 1010.9
20260510075759 69 87 4.0 4.0 0.00 0.18 0.00 80 1010.9
20260510075259 69 86 3.0 4.0 0.00 0.18 0.00 80 1010.7
20260510074759 69 110 0.0 1.0 0.00 0.18 0.00 80 1010.6
20260510074259 69 0 0.0 1.0 0.00 0.18 0.00 80 1010.7
20260510073759 69 202 0.0 1.0 0.00 0.18 0.00 80 1010.6
20260510073258 69 0 0.0 1.0 0.00 0.18 0.00 80 1010.7
20260510072759 69 24 0.0 1.0 0.00 0.18 0.00 80 1010.8
20260510072259 69 350 0.0 1.0 0.00 0.18 0.00 80 1010.9
20260510071759 69 285 0.0 1.0 0.00 0.18 0.00 80 1010.9
20260510071259 69 310 0.0 3.0 0.00 0.18 0.00 80 1010.9
20260510070758 69 231 0.0 3.0 0.00 0.18 0.00 79 1010.9
20260510070258 70 258 0.0 2.0 0.00 0.18 0.00 79 1010.9
20260510065758 70 34 0.0 3.0 0.00 0.18 0.00 79 1011.0
20260510065258 70 51 0.0 4.0 0.00 0.18 0.00 79 1011.0
20260510064758 70 65 2.0 4.0 0.00 0.18 0.00 79 1011.0
20260510063758 70 63 2.0 4.0 0.00 0.18 0.00 79 1011.1
20260510063258 70 68 2.0 3.0 0.00 0.18 0.00 79 1011.1
20260510062758 70 0 2.0 4.0 0.00 0.18 0.00 78 1011.1
20260510062257 70 69 3.0 5.0 0.00 0.18 0.00 78 1011.1
20260510061758 70 65 3.0 6.0 0.00 0.18 0.00 78 1011.2
20260510061257 71 124 4.0 6.0 0.00 0.18 0.00 78 1011.1
20260510060756 71 73 3.0 6.0 0.00 0.18 0.00 78 1011.2
20260510060257 71 63 3.0 6.0 0.00 0.18 0.00 77 1011.1
20260510055757 71 0 4.0 6.0 0.00 0.18 0.00 77 1011.1
20260510055257 71 63 4.0 4.0 0.00 0.18 0.00 76 1011.1
20260510054757 71 113 1.0 3.0 0.00 0.18 0.00 76 1010.9
20260510054257 71 44 0.0 2.0 0.00 0.18 0.00 75 1010.9
20260510053757 72 130 0.0 3.0 0.00 0.18 0.00 75 1010.8
20260510053257 72 124 0.0 3.0 0.00 0.18 0.00 75 1010.9
20260510052756 72 71 3.0 3.0 0.00 0.18 0.00 74 1010.8
20260510052257 72 48 2.0 3.0 0.00 0.18 0.00 73 1010.8
20260510051756 72 59 0.0 1.0 0.00 0.18 0.00 73 1010.7
20260510051256 72 3 0.0 2.0 0.00 0.18 0.00 73 1010.7
20260510050757 73 44 1.0 2.0 0.00 0.18 0.00 73 1010.7
20260510050257 73 72 0.0 2.0 0.00 0.18 0.00 73 1010.7
20260510045756 73 32 0.0 0.0 0.00 0.18 0.18 73 1010.5
20260510045256 73 107 0.0 3.0 0.00 0.18 0.18 73 1010.4
20260510044756 74 296 0.0 3.0 0.00 0.18 0.18 72 1010.5
20260510044256 74 109 0.0 2.0 0.00 0.18 0.18 72 1010.5
20260510043756 74 257 0.0 3.0 0.00 0.18 0.18 72 1010.4
20260510043256 74 49 0.0 3.0 0.00 0.18 0.18 72 1010.4
20260510042756 74 231 0.0 3.0 0.00 0.18 0.18 72 1010.4
20260510042256 75 23 0.0 3.0 0.00 0.18 0.18 72 1010.4
20260510041755 75 54 0.0 1.0 0.00 0.18 0.18 72 1010.5
20260510041255 75 330 0.0 3.0 0.00 0.18 0.18 72 1010.4
20260510040756 75 293 0.0 6.0 0.00 0.18 0.18 72 1010.4
20260510040255 75 66 2.0 9.0 0.00 0.18 0.18 72 1010.2
20260510035255 75 127 5.0 10.0 0.00 0.18 0.18 71 1010.2
20260510034755 75 0 4.0 9.0 0.00 0.18 0.18 71 1010.2
20260510033754 76 133 5.0 9.0 0.00 0.18 0.18 70 1010.1
20260510033255 75 125 5.0 10.0 0.00 0.18 0.18 70 1010.0
20260510032254 76 138 6.0 9.0 0.00 0.18 0.18 70 1009.9
20260510031755 76 130 6.0 10.0 0.00 0.18 0.18 70 1009.9
20260510031254 76 55 6.0 10.0 0.00 0.18 0.18 70 1009.8
20260510030254 76 69 4.0 9.0 0.00 0.18 0.18 70 1009.8
20260510025754 77 102 4.0 6.0 0.00 0.18 0.18 70 1009.8
20260510024753 78 59 3.0 7.0 0.00 0.18 0.18 69 1009.7
20260510024254 78 72 2.0 6.0 0.00 0.18 0.18 69 1009.5
20260510023254 78 90 3.0 6.0 0.00 0.18 0.18 68 1009.4
20260510022753 78 0 3.0 7.0 0.00 0.18 0.18 67 1009.2
20260510022254 79 85 4.0 9.0 0.00 0.18 0.18 67 1009.1
20260510021754 79 80 5.0 9.0 0.00 0.18 0.18 66 1009.0
20260510021253 79 120 4.0 9.0 0.00 0.18 0.18 65 1008.9
20260510020753 79 72 4.0 9.0 0.00 0.18 0.18 64 1009.0
20260510020253 79 151 4.0 10.0 0.00 0.18 0.18 64 1008.9
20260510015753 80 121 5.0 10.0 0.00 0.18 0.18 64 1008.8
20260510015252 80 130 5.0 10.0 0.00 0.18 0.18 64 1008.5
20260510014753 80 123 5.0 12.0 0.00 0.18 0.18 63 1008.5
20260510014253 80 120 5.0 13.0 0.00 0.18 0.18 63 1008.4
20260510013754 80 140 7.0 13.0 0.00 0.18 0.18 63 1008.2
20260510012753 81 134 5.0 11.0 0.00 0.18 0.18 62 1008.0
20260510012253 81 134 6.0 17.0 0.00 0.18 0.18 62 1008.0
20260510011252 82 148 9.0 13.0 0.00 0.18 0.18 63 1008.0
20260510010752 82 127 7.0 13.0 0.00 0.18 0.18 63 1008.0
20260510005752 83 127 7.0 13.0 0.00 0.18 0.18 63 1007.9
20260510005252 83 121 8.0 15.0 0.00 0.18 0.18 62 1007.9
20260510004249 84 134 7.0 13.0 0.00 0.18 0.18 61 1007.9
20260510003250 84 162 8.0 18.0 0.00 0.18 0.18 60 1008.0
20260510002750 85 127 10.0 16.0 0.00 0.18 0.18 59 1007.9
20260510001752 85 131 9.0 18.0 0.00 0.18 0.18 58 1007.8
20260510001252 85 135 11.0 16.0 0.00 0.18 0.18 57 1007.8
20260510000251 86 168 10.0 18.0 0.00 0.18 0.18 56 1007.8
20260509235751 86 158 9.0 18.0 0.00 0.18 0.18 56 1007.8
20260509234750 87 137 11.0 21.0 0.00 0.18 0.18 55 1007.7
20260509234251 87 142 9.0 21.0 0.00 0.18 0.18 54 1007.6
20260509233751 88 149 12.0 18.0 0.00 0.18 0.18 53 1007.6
20260509233250 88 141 11.0 18.0 0.00 0.18 0.18 52 1007.6
20260509232750 89 130 8.0 18.0 0.00 0.18 0.18 51 1007.5
20260509232250 89 140 8.0 13.0 0.00 0.18 0.18 47 1007.6
20260509231750 90 141 7.0 12.0 0.00 0.18 0.18 48 1007.6
20260509231250 90 149 7.0 12.0 0.00 0.18 0.18 47 1007.7
20260509230750 90 138 8.0 12.0 0.00 0.18 0.18 47 1007.6
20260509230250 90 127 4.0 12.0 0.00 0.18 0.18 47 1007.5
20260509225750 90 127 8.0 12.0 0.00 0.18 0.18 47 1007.6
20260509225250 90 175 4.0 13.0 0.00 0.18 0.18 47 1007.5
20260509224750 90 200 5.0 15.0 0.00 0.18 0.18 47 1007.5
20260509224250 90 161 9.0 15.0 0.00 0.18 0.18 47 1007.6
20260509223750 91 176 5.0 11.0 0.00 0.18 0.18 47 1007.6
20260509223248 91 152 6.0 12.0 0.00 0.18 0.18 46 1007.6
20260509222748 91 149 4.0 15.0 0.00 0.18 0.18 46 1007.6
20260509222249 92 109 8.0 15.0 0.00 0.18 0.18 45 1007.5
20260509221750 92 185 4.0 10.0 0.00 0.18 0.18 46 1007.5
20260509221249 92 197 4.0 9.0 0.00 0.18 0.18 47 1007.5
20260509220749 91 161 3.0 11.0 0.00 0.18 0.18 46 1007.6
20260509220250 91 152 6.0 11.0 0.00 0.18 0.18 46 1007.5
20260509215749 91 180 5.0 9.0 0.00 0.18 0.18 47 1007.5
20260509215249 91 166 4.0 10.0 0.00 0.18 0.18 47 1007.5
20260509214748 91 199 6.0 10.0 0.00 0.18 0.18 46 1007.5
20260509214248 92 114 6.0 10.0 0.00 0.18 0.18 45 1007.6
20260509213748 91 210 5.0 11.0 0.00 0.18 0.18 48 1007.6
20260509213248 91 133 6.0 11.0 0.00 0.18 0.18 45 1007.6
20260509212749 92 155 5.0 10.0 0.00 0.18 0.18 45 1007.6
20260509212249 92 173 4.0 10.0 0.00 0.18 0.18 45 1007.6
20260509211749 92 172 3.0 10.0 0.00 0.18 0.18 46 1007.6
20260509211249 92 154 4.0 9.0 0.00 0.18 0.18 46 1007.6
20260509210748 92 147 4.0 9.0 0.00 0.18 0.18 45 1007.5
20260509210248 92 158 4.0 10.0 0.00 0.18 0.18 45 1007.6
20260509205747 92 257 5.0 10.0 0.00 0.18 0.18 44 1007.8
20260509205248 92 179 4.0 9.0 0.00 0.18 0.18 46 1007.8
20260509204748 92 285 3.0 11.0 0.00 0.18 0.18 46 1007.8
20260509204248 92 264 6.0 11.0 0.00 0.18 0.18 46 1007.8
20260509203748 91 264 4.0 7.0 0.00 0.18 0.18 46 1007.9
20260509203248 91 223 3.0 9.0 0.00 0.18 0.18 49 1008.0
20260509202748 91 190 2.0 9.0 0.00 0.18 0.18 46 1008.1
20260509202247 91 131 6.0 9.0 0.00 0.18 0.18 47 1008.2
20260509201748 91 226 5.0 9.0 0.00 0.18 0.18 47 1008.3
20260509201247 91 158 2.0 10.0 0.00 0.18 0.18 48 1008.2
20260509200748 92 185 6.0 11.0 0.00 0.18 0.18 48 1008.2
20260509200247 92 212 7.0 11.0 0.00 0.18 0.18 49 1008.3
20260509195746 91 228 4.0 7.0 0.00 0.18 0.18 49 1008.3
20260509195247 91 192 4.0 6.0 0.00 0.18 0.18 50 1008.4
20260509194747 91 144 2.0 9.0 0.00 0.18 0.18 48 1008.5
20260509194247 91 226 3.0 9.0 0.00 0.18 0.18 47 1008.7
20260509193746 91 203 2.0 9.0 0.00 0.18 0.18 49 1008.6
20260509193246 90 196 6.0 10.0 0.00 0.18 0.18 49 1008.6
20260509192746 90 217 5.0 10.0 0.00 0.18 0.18 48 1008.7
20260509192246 90 154 6.0 10.0 0.00 0.18 0.18 49 1008.8
20260509191746 90 142 6.0 9.0 0.00 0.18 0.18 48 1008.8
20260509191246 90 237 5.0 10.0 0.00 0.18 0.18 49 1008.8
20260509190746 90 288 4.0 10.0 0.00 0.18 0.18 48 1008.9
20260509190246 90 157 4.0 12.0 0.00 0.18 0.18 51 1009.0
20260509185746 90 235 4.0 12.0 0.00 0.18 0.18 51 1009.2
20260509185246 90 237 2.0 9.0 0.00 0.18 0.18 52 1009.1
20260509184746 90 182 4.0 7.0 0.00 0.18 0.18 53 1009.3
20260509184246 90 185 3.0 7.0 0.00 0.18 0.18 54 1009.4
20260509183245 89 207 4.0 9.0 0.00 0.18 0.18 55 1009.5
20260509182746 88 233 3.0 9.0 0.00 0.18 0.18 56 1009.5
20260509181746 87 212 5.0 11.0 0.00 0.18 0.18 57 1009.6
20260509181245 87 213 5.0 9.0 0.00 0.18 0.18 58 1009.7
20260509180246 87 179 4.0 10.0 0.00 0.18 0.18 57 1009.7
20260509175746 87 245 3.0 10.0 0.00 0.18 0.18 60 1009.9
20260509175245 87 251 3.0 9.0 0.00 0.18 0.18 60 1009.8
20260509174744 86 220 4.0 9.0 0.00 0.18 0.18 60 1009.9
20260509174245 86 226 6.0 9.0 0.00 0.18 0.18 59 1009.8
20260509173745 86 219 4.0 9.0 0.00 0.18 0.18 62 1009.7
20260509173243 86 244 5.0 11.0 0.00 0.18 0.18 62 1009.7
20260509172744 86 220 5.0 11.0 0.00 0.18 0.18 63 1009.8
20260509172244 86 220 5.0 10.0 0.00 0.18 0.18 65 1009.8
20260509171744 85 216 4.0 9.0 0.00 0.18 0.18 65 1010.0
20260509171244 85 207 5.0 10.0 0.00 0.18 0.18 65 1009.9
20260509170744 84 212 6.0 11.0 0.00 0.18 0.18 65 1009.9
20260509170244 85 244 5.0 11.0 0.00 0.18 0.18 66 1009.9
20260509165744 85 178 3.0 11.0 0.00 0.18 0.18 66 1009.8
20260509165244 85 162 4.0 11.0 0.00 0.18 0.18 66 1009.8
20260509164743 84 131 3.0 10.0 0.00 0.18 0.18 66 1009.9
20260509164243 84 250 4.0 10.0 0.00 0.18 0.18 66 1009.9
20260509163744 84 196 4.0 7.0 0.00 0.18 0.18 67 1010.0
20260509163243 84 199 2.0 10.0 0.00 0.18 0.18 67 1010.2
20260509162743 84 76 3.0 10.0 0.00 0.18 0.18 67 1010.2
20260509162243 83 157 3.0 9.0 0.00 0.18 0.18 68 1010.3
20260509161743 83 233 2.0 7.0 0.00 0.18 0.18 67 1010.2
20260509161243 83 261 3.0 9.0 0.00 0.18 0.18 68 1010.2
20260509160743 82 189 2.0 11.0 0.00 0.18 0.18 68 1010.3
20260509160242 82 158 4.0 11.0 0.00 0.18 0.18 69 1010.2
20260509155743 81 241 3.0 7.0 0.00 0.18 0.18 70 1010.4
20260509155243 81 230 3.0 6.0 0.00 0.18 0.18 71 1010.4
20260509154742 80 224 2.0 6.0 0.00 0.18 0.18 72 1010.5
20260509154243 80 281 1.0 5.0 0.00 0.18 0.18 73 1010.7
20260509153742 79 282 3.0 7.0 0.00 0.18 0.18 75 1010.7
20260509153242 79 20 2.0 9.0 0.00 0.18 0.18 75 1010.8
20260509152241 78 326 6.0 10.0 0.00 0.18 0.18 77 1010.8
20260509151742 77 344 6.0 9.0 0.00 0.18 0.18 78 1010.8
20260509150742 76 30 4.0 6.0 0.00 0.18 0.18 80 1010.9
20260509150243 76 3 2.0 5.0 0.00 0.18 0.18 81 1010.8
20260509145241 75 350 1.0 5.0 0.00 0.18 0.18 82 1010.7
20260509144742 74 334 4.0 5.0 0.00 0.18 0.18 83 1010.7
20260509143740 74 259 1.0 6.0 0.00 0.18 0.18 85 1010.7
20260509143242 73 330 3.0 6.0 0.00 0.18 0.18 85 1010.6
20260509142741 73 142 1.0 6.0 0.00 0.18 0.18 85 1010.5
20260509142241 73 24 2.0 5.0 0.00 0.18 0.18 86 1010.4
20260509141741 73 69 4.0 5.0 0.00 0.18 0.18 86 1010.5
20260509141241 72 76 2.0 4.0 0.00 0.18 0.18 86 1010.4
20260509140741 72 124 2.0 5.0 0.00 0.18 0.18 86 1010.5
20260509140240 72 123 0.0 5.0 0.00 0.18 0.18 86 1010.5
20260509135741 72 348 4.0 5.0 0.00 0.18 0.18 86 1010.5
20260509135241 71 41 2.0 4.0 0.00 0.18 0.18 86 1010.6
20260509134741 71 27 2.0 5.0 0.00 0.18 0.18 86 1010.6
20260509134240 70 48 3.0 5.0 0.00 0.18 0.18 86 1010.6
20260509133741 70 107 2.0 5.0 0.00 0.18 0.18 86 1010.5
20260509133240 70 157 2.0 6.0 0.00 0.18 0.18 86 1010.8
20260509132740 71 165 2.0 6.0 0.00 0.18 0.18 86 1010.7
20260509132241 71 141 2.0 6.0 0.00 0.18 0.18 86 1010.8
20260509131740 72 134 4.0 6.0 0.00 0.18 0.18 86 1010.8
20260509131240 72 148 1.0 4.0 0.00 0.18 0.18 86 1010.9
20260509130740 72 124 1.0 3.0 0.00 0.18 0.18 86 1010.9
20260509130240 72 107 1.0 3.0 0.00 0.18 0.18 86 1010.8
20260509125740 72 35 0.0 7.0 0.00 0.18 0.18 86 1010.7
20260509125239 72 241 0.0 7.0 0.00 0.18 0.18 86 1010.6
20260509124739 72 93 1.0 5.0 0.00 0.18 0.18 86 1010.6
20260509123739 72 17 2.0 5.0 0.00 0.18 0.18 86 1010.3
20260509123239 72 20 4.0 5.0 0.00 0.18 0.18 86 1010.3
20260509122239 72 309 0.0 5.0 0.00 0.18 0.18 86 1010.0
20260509121739 72 131 0.0 7.0 0.00 0.18 0.18 86 1010.1
20260509120739 72 117 2.0 4.0 0.00 0.18 0.18 86 1009.4
20260509120239 72 11 1.0 6.0 0.00 0.18 0.18 86 1009.3
20260509115739 72 61 4.0 6.0 0.00 0.18 0.18 86 1008.9
20260509115238 72 75 4.0 6.0 0.01 0.18 0.18 86 1008.9
20260509114738 72 155 4.0 7.0 0.01 0.18 0.18 86 1008.9
20260509114239 72 82 5.0 15.0 0.02 0.18 0.18 86 1008.6
20260509113738 72 137 8.0 15.0 0.03 0.18 0.18 86 1008.3
20260509113239 73 93 6.0 14.0 0.03 0.18 0.18 86 1008.0
20260509112739 73 0 6.0 21.0 0.04 0.18 0.18 86 1007.9
20260509112238 73 120 11.0 21.0 0.05 0.18 0.18 86 1007.3
20260509111738 73 151 8.0 19.0 0.06 0.18 0.18 86 1007.5
20260509111238 73 175 11.0 24.0 0.07 0.18 0.18 86 1007.7
20260509110738 73 128 13.0 33.0 0.07 0.18 0.18 86 1007.6
20260509110238 73 165 18.0 33.0 0.08 0.18 0.18 86 1006.7
20260509105738 73 137 13.0 24.0 0.10 0.09 0.18 86 1007.6
20260509105237 73 131 14.0 28.0 0.11 0.09 0.17 86 1008.4